Lid_Strength_Index
-1 -1 -1 -1 -2 -2 -2 -2 -2 -1 -1 -1 -2 -1 -1 -1 -2 -2 -2 -2 -1 -1 -1 -1 -2 -2 -2 -2 -2 -2 -2 -2 -3 -2 -2 -2 -2 -2 -2 -2 -2 -2 -2
-2 -2 -2 -2 -2 -2 -2 -2 -1 -1 -1 -1 -1 -1 -1 -1 -2 -2 -2 -2 -1 -1 -1 -1 -2 -2 -2 -2 -2 -2 -2 -2 -2 -2 -2 -2 -2 -2 -2 -2 -2 -2 -2
-2 -2 -1 -1 -1 -2 -2 -2 -2 -2 -1 -1 -1 -1 -1 -1 -2 -2 -2 -2 -2 -2 -1 -1 -1 -2 -2 -2 -2 -2 -2 -2 -2 -2 -3 -3 -3 -3 -2 -2 -2 -2 -1
-2 -2 -1 -1 -2 -2 -2 -1 -1 -1 -1 -1 -1 -1 -1 -2 -2 -2 -1 -1 -1 -1 -1 -1 -1 -2 -2 -2 -2 -2 -2 -2 -2 -2 -3 -3 -3 -2 -2 -2 -2 -2 -1
-2 -2 -1 -1 -2 -2 -1 -1 -1 -1 -0 -0 -0 -1 -1 -1 -2 -2 -2 -2 -2 -1 -1 -2 -2 -2 -2 -2 -2 -2 -2 -2 -2 -2 -2 -2 -2 -2 -2 -2 -2 -2 -1
-2 -1 -1 -2 -2 -1 -1 -1 -0 -1 -1 -1 -0 -0 -1 -1 -2 -2 -1 -1 -1 -1 -2 -2 -2 -2 -2 -2 -1 -1 -2 -3 -2 -2 -2 -2 -2 -2 -2 -2 -2 -2 -1
-2 -1 -1 -2 -1 -1 -0 -1 -1 -0 0 -1 0 0 -0 -1 -1 -1 -1 -1 -1 -1 -1 -1 -1 -1 -2 -2 -2 -2 -2 -2 -2 -2 -2 -2 -2 -2 -1 -1 -1 -1 -1
-1 -1 -1 -1 -1 -1 -1 -1 -1 0 -0 -1 1 1 2 1 -0 -1 -1 -1 -1 -1 -1 -1 -1 -2 -2 -2 -2 -2 -3 -3 -2 -2 -2 -2 -1 -2 -1 -1 -1 -1 -1
-1 -1 -1 -2 -1 -1 -0 -1 -1 0 1 -0 0 1 3 3 2 -0 -0 -1 -1 -1 -1 -1 -1 -1 -2 -2 -2 -2 -2 -2 -2 -1 -2 -2 -2 -1 -1 -1 -2 -1 -1
-1 -1 -1 -1 -2 -1 -1 -1 -1 -1 -0 1 -0 -0 0 1 3 3 0 -0 -1 -1 -1 -1 -1 -1 -2 -2 -2 -2 -2 -1 -1 -2 -1 -2 -2 -2 -2 -1 -1 -1 -1
-1 -1 -1 -1 -1 -1 -1 -1 -1 -1 -1 0 0 0 0 0 0 2 3 1 -0 -1 -1 -1 -1 -1 -1 -2 -1 -1 -1 -1 -1 -1 -1 -2 -2 -2 -1 -2 -2 -1 -2
-1 -1 -1 -1 -1 -1 -1 -1 -1 -0 -1 -0 -0 -0 1 1 1 2 2 2 2 0 -1 -1 -1 -1 -1 -1 -2 -1 -1 -0 0 0 -1 -1 -1 -1 -1 -1 -1 -1 -1
0 -0 -1 -1 -1 -1 -1 -1 -1 -1 -1 -0 -0 -0 -0 -0 -0 0 1 2 2 0 0 -1 -1 -1 -1 -1 -2 -1 -0 0 0 1 1 1 1 1 0 -1 -1 -1 -1
-0 -1 -1 -1 -1 -1 -1 -1 -1 -0 -1 -1 -0 -1 -0 -1 -1 -0 1 2 3 2 1 1 -1 -1 -1 -1 -1 -1 -1 1 2 2 2 2 2 1 0 0 -1 -0 0
-0 -1 -1 -1 -1 -1 -1 -1 -0 -0 -1 -0 -0 -0 -0 -1 -1 -1 -0 0 2 4 3 1 0 -1 -1 -1 -1 -2 -2 2 2 3 4 4 3 2 2 1 1 1 1
-1 -1 -1 -1 -1 -1 -1 -1 -0 -1 -0 -0 -0 -0 -0 -0 -0 -0 -0 0 0 2 3 0 -0 -1 -1 -1 -1 -2 -2 1 2 3 4 5 4 4 4 4 4 3 3
-1 -1 -1 -1 -0 -0 -1 -0 -0 -0 -0 -0 -0 -0 -0 -1 0 -0 -0 0 1 1 3 1 -0 -1 -1 -1 -1 -2 -1 -2 2 4 4 5 6 6 6 6 6 6 5
-1 -1 -1 -0 -0 -0 -1 -0 -0 -0 0 0 0 0 0 0 -0 -0 0 0 0 0 1 2 0 -0 -0 -1 -1 -1 -1 -1 0 4 4 5 6 6 7 7 7 8 8
-0 -0 -0 -0 -0 -0 -0 -0 -0 -0 -0 -0 -0 0 0 0 0 0 0 0 0 0 0 1 1 -0 -1 -1 -0 -1 -0 -0 -1 1 4 4 4 5 6 7 7 7 8
-0 -0 -0 -0 -0 -0 -0 -0 -0 -0 -0 -0 -0 -0 -0 -0 -0 -0 0 -0 -0 0 0 1 1 1 0 -1 -1 0 1 2 1 0 3 4 3 4 5 6 5 6 7
-0 -0 -0 -0 -0 -0 -0 -0 -0 -0 -0 0 -0 -0 -0 -0 3 1 -0 -0 0 0 1 1 1 1 1 1 1 -0 0 0 2 1 1 -0 3 3 5 6 6 6 7
-0 -0 0 0 0 0 4 3 1 0 -0 -0 0 -0 -1 2 1 3 3 4 2 0 1 1 1 2 1 0 -0 0 0 1 2 3 1 1 3 4 6 7 7 8 7
0 0 0 0 0 -0 6 5 4 -0 0 0 0 1 0 1 1 1 4 4 4 4 3 1 2 2 1 1 0 0 0 2 3 5 1 6 1 5 5 7 9 9 9
1 0 0 0 0 -0 6 6 5 -0 0 0 -0 1 1 2 1 2 1 1 2 3 2 2 1 2 2 1 1 0 0 3 4 6 4 4 6 3 5 7 8 10 10
1 0 0 0 0 1 6 6 5 0 1 3 3 2 1 2 6 5 2 3 4 5 7 7 7 6 7 6 5 2 2 2 3 7 8 5 8 6 3 6 7 8 9
4 4 4 5 6 3 6 7 5 2 4 7 6 6 7 6 8 6 2 3 4 5 5 5 5 6 6 7 7 5 6 6 6 7 9 7 8 8 7 4 6 7 7